Location: Kuffner-Sternwarte
(48.2130°N, 16.2960°E)
Time: 15:25:21
(UTC+02:00)

COROT - Pass Details

Date: 11 May 2026
Orbit: 594 x 855 km, 90.1° (Epoch: 21 May)

Event Time Altitude Azimuth Distance (km) Brightness Sun altitude
Rises 01:41:51 0° 347° (NNW) 3,386 10.4 -23.0°
Reaches altitude 10° 01:45:29 10° 323° (NW) 2,406 9.0 -22.9°
Maximum altitude 01:48:03 14° 294° (WNW) 2,112 8.4 -22.7°
Enters shadow 01:50:14 11° 268° (W) 2,268 8.3 -22.7°
